Overview Statistics Trail Chart Weather Telemetry Raw packets
 

This is the latest recevied weather packets stored in our database for station/object KG7FOQ-13. If no packets are shown the sender has not sent any weather packets the latest 10 day(s).

<< 93 94 95 96 97 98 99 >>
Time Temp. Humidity Pressure Rain* Wind** Luminosity Snow
1787910389 25.56° C 35% 1016 hPa 0 mm - - -
1787910089 26.11° C 34% 1016 hPa 0 mm - - -
1787909787 26.11° C 32% 1016 hPa 0 mm - - -
1787909485 26.11° C 32% 1016 hPa 0 mm - - -
1787909184 25.56° C 34% 1016 hPa 0 mm - - -
1787908883 25.56° C 34% 1015.9 hPa 0 mm - - -
1787908583 26.11° C 34% 1015.9 hPa 0 mm - - -
1787908283 26.11° C 33% 1016.2 hPa 0 mm - - -
1787907983 26.11° C 31% 1016 hPa 0 mm - - -
1787907682 26.67° C 30% 1016 hPa 0 mm - - -
1787907381 26.67° C 30% 1016 hPa 0 mm - - -
1787907081 26.67° C 29% 1015.9 hPa 0 mm - - -
1787906780 26.67° C 29% 1015.9 hPa 0 mm - - -
1787906479 26.67° C 29% 1015.8 hPa 0 mm - - -
1787906179 26.67° C 30% 1015.8 hPa 0 mm - - -
1787905878 26.67° C 30% 1015.8 hPa 0 mm - - -
1787905579 27.22° C 29% 1015.9 hPa 0 mm - - -
1787905277 27.22° C 29% 1015.8 hPa 0 mm - - -
1787905009 27.22° C 28% 1015.8 hPa 0 mm - - -
1787904977 27.22° C 28% 1015.8 hPa 0 mm - - -
1787904677 27.22° C 28% 1015.8 hPa 0 mm - - -
1787904376 27.22° C 28% 1015.8 hPa 0 mm - - -
1787904075 27.22° C 29% 1015.8 hPa 0 mm - - -
1787903775 27.22° C 29% 1015.7 hPa 0 mm - - -
1787903474 26.67° C 30% 1015.8 hPa 0 mm - - -

* Rain latest hour (hover to see other rain measurements)
** Current wind speed in m/s (hover to see current wind gust speed)